When you browse on this site, cookies collect data to enhance your experience and personalize the content and advertising you see.
Visit our Privacy Policy to learn more. By continuing to use the site, you agree to this use of cookies and data.
  • In Hungary
  • List of Countries
  • For 7 days
  • Water Temperature
  • Weather Map
  • News
  • Weather Widgets
  • user-avatar
    Login

    Hourly Weather Belousovo

    Today, 25 January, Saturday

    Time Temperature Precipitation Wind Pressure Humidity
    00:00 -4°C° 0 mm 5 mps 740 mmHg 95%
    01:00 -3°C° 0.4 mm 4 mps 740 mmHg 96%
    02:00 -4°C° 0.4 mm 4 mps 740 mmHg 96%
    03:00 -4°C° 0.4 mm 4 mps 740 mmHg 96%
    04:00 -4°C° 0.5 mm 4 mps 740 mmHg 96%
    05:00 -5°C° 0.5 mm 5 mps 739 mmHg 95%
    06:00 -6°C° 0.5 mm 5 mps 739 mmHg 95%
    07:00 -6°C° 0.8 mm 5 mps 738 mmHg 94%
    08:00 -6°C° 0.8 mm 6 mps 737 mmHg 93%
    09:00 -6°C° 0.8 mm 6 mps 736 mmHg 92%
    10:00 -7°C° 0.8 mm 7 mps 736 mmHg 92%
    11:00 -6°C° 0.8 mm 7 mps 736 mmHg 92%
    12:00 -6°C° 0.8 mm 7 mps 735 mmHg 92%
    13:00 -6°C° 0.3 mm 7 mps 736 mmHg 92%
    14:00 -4°C° 0.3 mm 7 mps 736 mmHg 92%
    15:00 -4°C° 0.3 mm 7 mps 736 mmHg 92%
    16:00 -4°C° 0.1 mm 7 mps 737 mmHg 91%
    17:00 -5°C° 0.1 mm 6 mps 738 mmHg 90%
    18:00 -5°C° 0.1 mm 6 mps 739 mmHg 89%
    19:00 -6°C° 0.1 mm 6 mps 740 mmHg 89%
    20:00 -8°C° 0.1 mm 5 mps 741 mmHg 89%
    21:00 -10°C° 0.1 mm 5 mps 742 mmHg 89%
    22:00 -10°C° 0 mm 4 mps 743 mmHg 89%
    23:00 -11°C° 0 mm 4 mps 744 mmHg 89%

    Tomorrow, 26 January, Sunday

    Time Temperature Precipitation Wind Pressure Humidity
    00:00 -12°C° 0 mm 4 mps 744 mmHg 90%
    01:00 -12°C° 0 mm 4 mps 745 mmHg 91%
    02:00 -14°C° 0 mm 4 mps 745 mmHg 92%
    03:00 -13°C° 0 mm 3 mps 745 mmHg 93%
    04:00 -14°C° 0.1 mm 4 mps 746 mmHg 93%
    05:00 -14°C° 0.1 mm 4 mps 746 mmHg 93%
    06:00 -14°C° 0.1 mm 4 mps 747 mmHg 92%
    07:00 -14°C° 0.1 mm 4 mps 747 mmHg 92%
    08:00 -15°C° 0.1 mm 4 mps 747 mmHg 92%
    09:00 -15°C° 0.1 mm 4 mps 747 mmHg 92%
    10:00 -15°C° 0 mm 4 mps 748 mmHg 91%
    11:00 -15°C° 0 mm 4 mps 748 mmHg 90%
    12:00 -15°C° 0 mm 5 mps 749 mmHg 89%
    13:00 -15°C° 0 mm 5 mps 749 mmHg 88%
    14:00 -15°C° 0 mm 5 mps 749 mmHg 87%
    15:00 -15°C° 0 mm 5 mps 749 mmHg 85%
    16:00 -15°C° 0 mm 5 mps 749 mmHg 85%
    17:00 -15°C° 0 mm 5 mps 749 mmHg 85%
    18:00 -15°C° 0 mm 5 mps 749 mmHg 86%
    19:00 -15°C° 0 mm 5 mps 749 mmHg 86%
    20:00 -15°C° 0 mm 5 mps 750 mmHg 86%
    21:00 -15°C° 0 mm 5 mps 750 mmHg 87%
    22:00 -15°C° 0 mm 5 mps 750 mmHg 87%
    23:00 -15°C° 0 mm 5 mps 750 mmHg 88%

    Day after tomorrow, 27 January, Monday

    Time Temperature Precipitation Wind Pressure Humidity
    00:00 -15°C° 0 mm 5 mps 749 mmHg 88%
    01:00 -15°C° 0 mm 5 mps 749 mmHg 88%
    02:00 -15°C° 0 mm 5 mps 749 mmHg 88%
    03:00 -15°C° 0 mm 5 mps 749 mmHg 88%
    04:00 -15°C° 0 mm 5 mps 749 mmHg 86%
    05:00 -15°C° 0 mm 5 mps 748 mmHg 85%
    06:00 -15°C° 0 mm 5 mps 748 mmHg 83%
    07:00 -14°C° 0 mm 5 mps 748 mmHg 81%
    08:00 -14°C° 0 mm 5 mps 747 mmHg 80%
    09:00 -13°C° 0 mm 5 mps 747 mmHg 78%
    10:00 -13°C° 0 mm 5 mps 747 mmHg 77%
    11:00 -12°C° 0 mm 6 mps 746 mmHg 76%
    12:00 -11°C° 0 mm 6 mps 746 mmHg 74%
    13:00 -10°C° 0.1 mm 6 mps 745 mmHg 77%
    14:00 -10°C° 0.1 mm 6 mps 745 mmHg 80%
    15:00 -9°C° 0.1 mm 6 mps 744 mmHg 83%
    16:00 -9°C° 0.1 mm 6 mps 744 mmHg 86%
    17:00 -9°C° 0.1 mm 6 mps 744 mmHg 88%
    18:00 -9°C° 0.1 mm 6 mps 743 mmHg 91%
    19:00 -8°C° 0.3 mm 6 mps 743 mmHg 91%
    20:00 -8°C° 0.3 mm 6 mps 743 mmHg 92%
    21:00 -8°C° 0.3 mm 6 mps 742 mmHg 93%
    22:00 -8°C° 0.2 mm 6 mps 742 mmHg 91%
    23:00 -6°C° 0.2 mm 6 mps 742 mmHg 90%

    28 January, Tuesday

    Time Temperature Precipitation Wind Pressure Humidity
    00:00 -6°C° 0.2 mm 6 mps 741 mmHg 89%
    01:00 -6°C° 0.2 mm 6 mps 741 mmHg 90%
    02:00 -6°C° 0.2 mm 6 mps 741 mmHg 91%
    03:00 -5°C° 0.2 mm 6 mps 741 mmHg 92%
    04:00 -6°C° 0.1 mm 6 mps 742 mmHg 89%
    05:00 -8°C° 0.1 mm 6 mps 742 mmHg 85%
    06:00 -9°C° 0.1 mm 6 mps 743 mmHg 82%
    07:00 -10°C° 0 mm 6 mps 743 mmHg 85%
    08:00 -11°C° 0 mm 5 mps 744 mmHg 87%
    09:00 -13°C° 0 mm 5 mps 745 mmHg 90%
    10:00 -12°C° 0 mm 5 mps 745 mmHg 90%
    11:00 -12°C° 0 mm 5 mps 745 mmHg 89%
    12:00 -12°C° 0 mm 5 mps 746 mmHg 89%
    13:00 -12°C° 0.1 mm 5 mps 746 mmHg 90%
    14:00 -11°C° 0.1 mm 5 mps 746 mmHg 90%
    15:00 -11°C° 0.1 mm 5 mps 746 mmHg 91%
    16:00 -11°C° 0.1 mm 5 mps 746 mmHg 91%
    17:00 -12°C° 0.1 mm 5 mps 746 mmHg 91%
    18:00 -11°C° 0.1 mm 4 mps 746 mmHg 91%
    19:00 -11°C° 0.2 mm 4 mps 746 mmHg 92%
    20:00 -11°C° 0.2 mm 4 mps 746 mmHg 93%
    21:00 -12°C° 0.2 mm 4 mps 746 mmHg 93%
    22:00 -12°C° 0.2 mm 3 mps 746 mmHg 94%
    23:00 -12°C° 0.2 mm 3 mps 746 mmHg 94%

    29 January, Wednesday

    Time Temperature Precipitation Wind Pressure Humidity
    00:00 -10°C° 0.2 mm 2 mps 745 mmHg 95%
    01:00 -10°C° 0.2 mm 2 mps 745 mmHg 95%
    02:00 -10°C° 0.2 mm 1 mps 745 mmHg 95%
    03:00 -10°C° 0.2 mm 1 mps 744 mmHg 96%
    04:00 -10°C° 0.2 mm 1 mps 744 mmHg 96%
    05:00 -10°C° 0.2 mm 1 mps 744 mmHg 96%
    06:00 -11°C° 0.2 mm 1 mps 744 mmHg 96%
    07:00 -13°C° 0.1 mm 2 mps 744 mmHg 95%
    08:00 -14°C° 0.1 mm 2 mps 745 mmHg 95%
    09:00 -16°C° 0.1 mm 3 mps 745 mmHg 94%
    10:00 -17°C° 0 mm 3 mps 747 mmHg 94%
    11:00 -18°C° 0 mm 4 mps 748 mmHg 93%
    12:00 -19°C° 0 mm 4 mps 749 mmHg 92%
    13:00 -19°C° 0 mm 4 mps 750 mmHg 92%
    14:00 -20°C° 0 mm 4 mps 752 mmHg 92%
    15:00 -21°C° 0 mm 5 mps 753 mmHg 92%
    16:00 -22°C° 0.1 mm 5 mps 754 mmHg 93%
    17:00 -24°C° 0.1 mm 5 mps 755 mmHg 93%
    18:00 -25°C° 0.1 mm 5 mps 755 mmHg 94%
    19:00 -24°C° 0 mm 4 mps 756 mmHg 94%
    20:00 -25°C° 0 mm 4 mps 757 mmHg 94%
    21:00 -26°C° 0 mm 4 mps 758 mmHg 94%
    22:00 -26°C° 0 mm 4 mps 758 mmHg 94%
    23:00 -27°C° 0 mm 4 mps 759 mmHg 94%

    30 January, Thursday

    Time Temperature Precipitation Wind Pressure Humidity
    00:00 -27°C° 0 mm 4 mps 760 mmHg 95%
    01:00 -29°C° 0.1 mm 4 mps 760 mmHg 95%
    02:00 -29°C° 0.1 mm 4 mps 761 mmHg 95%
    03:00 -30°C° 0.1 mm 4 mps 761 mmHg 95%
    04:00 -30°C° 0 mm 4 mps 762 mmHg 95%
    05:00 -30°C° 0 mm 3 mps 762 mmHg 95%
    06:00 -30°C° 0 mm 3 mps 762 mmHg 95%
    07:00 -30°C° 0 mm 3 mps 763 mmHg 95%
    08:00 -30°C° 0 mm 3 mps 763 mmHg 95%
    09:00 -30°C° 0 mm 3 mps 764 mmHg 95%
    10:00 -30°C° 0 mm 3 mps 764 mmHg 95%
    11:00 -29°C° 0 mm 3 mps 764 mmHg 95%
    12:00 -29°C° 0 mm 3 mps 764 mmHg 95%
    13:00 -27°C° 0 mm 3 mps 765 mmHg 94%
    14:00 -27°C° 0 mm 3 mps 765 mmHg 94%
    15:00 -27°C° 0 mm 3 mps 765 mmHg 94%
    16:00 -29°C° 0 mm 3 mps 766 mmHg 95%
    17:00 -27°C° 0 mm 2 mps 766 mmHg 96%
    18:00 -28°C° 0 mm 2 mps 766 mmHg 97%
    19:00 -28°C° 0 mm 2 mps 767 mmHg 97%
    20:00 -29°C° 0 mm 2 mps 767 mmHg 97%
    21:00 -29°C° 0 mm 2 mps 768 mmHg 97%
    22:00 -29°C° 0 mm 2 mps 768 mmHg 97%
    23:00 -30°C° 0 mm 2 mps 768 mmHg 97%
    Show more